NSZ2613 ESSA-EFHK

Flight info

Callsign NSZ2613
Flight time 0h 39m
Altitude 29000
Route TOVRI N851 RIKUM DCT RIRIP Y364 LAKUT
Aircraft B738/M-SDE2E3FGHIRWXY/LB1

Departure

Time 2026-04-23 17:11
Airport Stockholm-Arlanda Airport (ESSA)

Arrival

Time 2026-04-23 17:51
Airport Helsinki Vantaa Airport (EFHK)
Time Latitude Longitude Altitude Speed Heading
2026-04-23 16:25 59.64842 17.92673 164 ft 0 kts 166°
2026-04-23 17:00 59.64854 17.92667 139 ft 0 kts 166°
2026-04-23 17:00 59.64868 17.92660 136 ft 0 kts 166°
2026-04-23 17:00 59.64881 17.92655 136 ft 0 kts 186°
2026-04-23 17:00 59.64892 17.92671 136 ft 0 kts 245°
2026-04-23 17:01 59.64894 17.92681 136 ft 0 kts 256°
2026-04-23 17:07 59.64894 17.92658 136 ft 7 kts 275°
2026-04-23 17:07 59.64906 17.92508 136 ft 14 kts 274°
2026-04-23 17:07 59.64898 17.92306 137 ft 15 kts 253°
2026-04-23 17:07 59.64918 17.92139 137 ft 14 kts 340°
2026-04-23 17:08 59.65013 17.92151 137 ft 13 kts 11°
2026-04-23 17:08 59.65105 17.92186 137 ft 13 kts 10°
2026-04-23 17:08 59.65208 17.92221 137 ft 19 kts 10°
2026-04-23 17:08 59.65351 17.92273 137 ft 22 kts 11°
2026-04-23 17:09 59.65473 17.92437 137 ft 21 kts 45°
2026-04-23 17:09 59.65538 17.92692 137 ft 21 kts 75°
2026-04-23 17:09 59.65578 17.92991 137 ft 25 kts 76°
2026-04-23 17:09 59.65625 17.93301 137 ft 21 kts 56°
2026-04-23 17:10 59.65717 17.93486 137 ft 2 kts 47°
2026-04-23 17:10 59.65745 17.93542 137 ft 12 kts 46°
2026-04-23 17:10 59.65832 17.93713 137 ft 23 kts 46°
2026-04-23 17:11 59.65904 17.94101 139 ft 47 kts 75°
2026-04-23 17:11 59.66063 17.95291 134 ft 126 kts 76°
2026-04-23 17:11 59.66309 17.97285 305 ft 162 kts 73°
2026-04-23 17:11 59.66558 17.99461 969 ft 165 kts 70°
2026-04-23 17:12 59.66877 18.01794 1457 ft 195 kts 70°
2026-04-23 17:12 59.67249 18.04600 1797 ft 226 kts 73°
2026-04-23 17:12 59.67606 18.07763 2251 ft 249 kts 74°
2026-04-23 17:12 59.67984 18.11238 2963 ft 261 kts 74°
2026-04-23 17:13 59.68357 18.14740 3956 ft 260 kts 75°
2026-04-23 17:13 59.68726 18.18246 4721 ft 263 kts 75°
2026-04-23 17:13 59.69121 18.21834 5398 ft 267 kts 73°
2026-04-23 17:13 59.69640 18.25338 6197 ft 264 kts 62°
2026-04-23 17:14 59.70438 18.28635 6838 ft 269 kts 58°
2026-04-23 17:14 59.71295 18.31966 7514 ft 272 kts 57°
2026-04-23 17:14 59.72147 18.35302 8353 ft 270 kts 57°
2026-04-23 17:14 59.72996 18.38670 9023 ft 277 kts 57°
2026-04-23 17:15 59.73862 18.42123 9761 ft 281 kts 57°
2026-04-23 17:15 59.74721 18.45641 10463 ft 288 kts 57°
2026-04-23 17:15 59.75595 18.49271 10834 ft 305 kts 58°
2026-04-23 17:15 59.76536 18.53191 11100 ft 324 kts 58°
2026-04-23 17:16 59.77534 18.57320 11454 ft 340 kts 58°
2026-04-23 17:16 59.78590 18.61674 11605 ft 360 kts 58°
2026-04-23 17:16 59.79689 18.66269 11963 ft 373 kts 58°
2026-04-23 17:16 59.80798 18.70966 12627 ft 376 kts 58°
2026-04-23 17:17 59.81910 18.75656 13550 ft 374 kts 58°
2026-04-23 17:17 59.83021 18.80343 14290 ft 377 kts 58°
2026-04-23 17:17 59.83779 18.83565 14677 ft 382 kts 58°
2026-04-23 17:17 59.85277 18.89989 15421 ft 390 kts 58°
2026-04-23 17:18 59.87585 18.99884 16717 ft 397 kts 58°
2026-04-23 17:18 59.88765 19.04905 17296 ft 403 kts 58°
2026-04-23 17:18 59.89956 19.09980 17924 ft 406 kts 58°
2026-04-23 17:19 59.91151 19.15087 18597 ft 407 kts 58°
2026-04-23 17:19 59.92345 19.20206 19213 ft 408 kts 58°
2026-04-23 17:19 59.93543 19.25360 19767 ft 412 kts 57°
2026-04-23 17:19 59.94754 19.30584 20249 ft 417 kts 57°
2026-04-23 17:20 59.95970 19.35856 20755 ft 420 kts 57°
2026-04-23 17:20 59.98020 19.46980 21762 ft 437 kts 68°
2026-04-23 17:21 59.99448 19.58900 22686 ft 445 kts 69°
2026-04-23 17:21 60.00154 19.64945 23139 ft 449 kts 69°
2026-04-23 17:21 60.01590 19.77174 23948 ft 455 kts 68°
2026-04-23 17:22 60.02320 19.83347 24338 ft 457 kts 68°
2026-04-23 17:22 60.03792 19.95788 25098 ft 462 kts 68°
2026-04-23 17:23 60.05275 20.08372 25821 ft 467 kts 68°
2026-04-23 17:23 60.06016 20.14707 26169 ft 469 kts 68°
2026-04-23 17:23 60.07502 20.27497 26836 ft 474 kts 68°
2026-04-23 17:24 60.08244 20.33934 27301 ft 473 kts 67°
2026-04-23 17:24 60.08970 20.40312 28040 ft 466 kts 67°
2026-04-23 17:24 60.10401 20.52920 28994 ft 465 kts 66°
2026-04-23 17:25 60.12590 20.72186 29057 ft 478 kts 67°
2026-04-23 17:26 60.15239 20.96156 29046 ft 483 kts 67°
2026-04-23 17:27 60.17350 21.15681 29080 ft 466 kts 67°
2026-04-23 17:27 60.18707 21.28291 29057 ft 462 kts 67°
2026-04-23 17:28 60.20077 21.40983 29050 ft 467 kts 67°
2026-04-23 17:28 60.21442 21.53820 29043 ft 471 kts 67°
2026-04-23 17:29 60.22794 21.66739 29032 ft 473 kts 67°
2026-04-23 17:30 60.24792 21.86160 29015 ft 469 kts 68°
2026-04-23 17:30 60.26094 21.98956 28650 ft 466 kts 67°
2026-04-23 17:30 60.26741 22.05345 27876 ft 463 kts 68°
2026-04-23 17:31 60.27379 22.11688 27031 ft 461 kts 68°
2026-04-23 17:31 60.28013 22.18018 26136 ft 461 kts 68°
2026-04-23 17:31 60.28646 22.24356 25198 ft 462 kts 69°
2026-04-23 17:31 60.29277 22.30704 24450 ft 459 kts 69°
2026-04-23 17:32 60.29892 22.36972 23783 ft 454 kts 69°
2026-04-23 17:32 60.30497 22.43176 23029 ft 449 kts 70°
2026-04-23 17:32 60.31093 22.49308 22313 ft 443 kts 70°
2026-04-23 17:32 60.31680 22.55368 21655 ft 437 kts 70°
2026-04-23 17:33 60.32257 22.61351 20962 ft 432 kts 70°
2026-04-23 17:33 60.32826 22.67266 20305 ft 427 kts 70°
2026-04-23 17:33 60.33388 22.73129 19695 ft 423 kts 70°
2026-04-23 17:33 60.33941 22.78924 19046 ft 419 kts 70°
2026-04-23 17:34 60.34486 22.84666 18396 ft 415 kts 70°
2026-04-23 17:34 60.35025 22.90367 17654 ft 412 kts 71°
2026-04-23 17:34 60.36077 23.01606 16331 ft 402 kts 71°
2026-04-23 17:35 60.36591 23.07141 15700 ft 398 kts 71°
2026-04-23 17:35 60.37591 23.17999 14455 ft 384 kts 71°
2026-04-23 17:35 60.38067 23.23229 13850 ft 373 kts 71°
2026-04-23 17:36 60.38527 23.28304 13396 ft 358 kts 71°
2026-04-23 17:36 60.38957 23.33109 13253 ft 337 kts 71°
2026-04-23 17:36 60.39369 23.37715 13036 ft 321 kts 71°
2026-04-23 17:36 60.39761 23.42045 12497 ft 316 kts 71°
2026-04-23 17:37 60.40160 23.46410 11921 ft 314 kts 71°
2026-04-23 17:37 60.40556 23.50754 11393 ft 313 kts 72°
2026-04-23 17:37 60.41314 23.59247 10946 ft 302 kts 72°
2026-04-23 17:38 60.41685 23.63418 10489 ft 302 kts 72°
2026-04-23 17:38 60.42058 23.67616 10162 ft 305 kts 73°
2026-04-23 17:38 60.42431 23.71842 9793 ft 306 kts 73°
2026-04-23 17:38 60.42800 23.76061 9438 ft 302 kts 73°
2026-04-23 17:39 60.43162 23.80228 9112 ft 299 kts 73°
2026-04-23 17:39 60.43518 23.84347 8756 ft 296 kts 73°
2026-04-23 17:39 60.43866 23.88450 8390 ft 295 kts 75°
2026-04-23 17:39 60.44127 23.92560 8019 ft 294 kts 77°
2026-04-23 17:40 60.44352 23.96662 7670 ft 293 kts 77°
2026-04-23 17:40 60.44578 24.00743 7347 ft 290 kts 77°
2026-04-23 17:40 60.44795 24.04789 7006 ft 289 kts 79°
2026-04-23 17:40 60.44778 24.08887 6674 ft 292 kts 87°
2026-04-23 17:41 60.44634 24.12982 6345 ft 290 kts 88°
2026-04-23 17:41 60.44329 24.21088 5618 ft 288 kts 88°
2026-04-23 17:41 60.44058 24.25088 5325 ft 289 kts 104°
2026-04-23 17:42 60.41476 24.30976 5122 ft 272 kts 135°
2026-04-23 17:42 60.40071 24.33372 5075 ft 256 kts 135°
2026-04-23 17:42 60.38718 24.35681 5094 ft 254 kts 135°
2026-04-23 17:43 60.37367 24.38002 5061 ft 255 kts 135°
2026-04-23 17:43 60.36023 24.40321 5061 ft 254 kts 134°
2026-04-23 17:43 60.34684 24.42633 5060 ft 253 kts 134°
2026-04-23 17:43 60.33360 24.44918 5042 ft 246 kts 134°
2026-04-23 17:44 60.32090 24.47108 4973 ft 234 kts 134°
2026-04-23 17:44 60.30857 24.49168 4836 ft 229 kts 142°
2026-04-23 17:44 60.27795 24.50802 4594 ft 227 kts 169°
2026-04-23 17:45 60.26223 24.51282 4523 ft 231 kts 170°
2026-04-23 17:45 60.23102 24.52988 4442 ft 234 kts 138°
2026-04-23 17:45 60.21911 24.55158 4425 ft 230 kts 131°
2026-04-23 17:46 60.19602 24.59831 3885 ft 242 kts 126°
2026-04-23 17:46 60.18913 24.62747 3766 ft 227 kts 88°
2026-04-23 17:46 60.19273 24.65629 3610 ft 208 kts 47°
2026-04-23 17:47 60.20369 24.67305 3358 ft 195 kts 25°
2026-04-23 17:47 60.21457 24.68953 3066 ft 196 kts 38°
2026-04-23 17:47 60.23323 24.72793 2562 ft 186 kts 41°
2026-04-23 17:48 60.24177 24.74666 2323 ft 178 kts 41°
2026-04-23 17:48 60.24994 24.76475 2059 ft 170 kts 42°
2026-04-23 17:48 60.25755 24.78162 1808 ft 152 kts 41°
2026-04-23 17:48 60.26424 24.79641 1620 ft 136 kts 39°
2026-04-23 17:49 60.27064 24.81050 1432 ft 138 kts 40°
2026-04-23 17:49 60.27717 24.82491 1225 ft 140 kts 40°
2026-04-23 17:49 60.28377 24.83950 1037 ft 141 kts 41°
2026-04-23 17:49 60.29038 24.85429 827 ft 142 kts 39°
2026-04-23 17:50 60.29701 24.86925 596 ft 144 kts 39°
2026-04-23 17:50 60.31002 24.89803 283 ft 147 kts 42°
2026-04-23 17:50 60.31701 24.91287 158 ft 141 kts 42°
2026-04-23 17:51 60.32289 24.92535 171 ft 96 kts 49°
2026-04-23 17:51 60.32488 24.93031 177 ft 34 kts 64°
2026-04-23 17:51 60.32496 24.93572 180 ft 10 kts 81°
2026-04-23 17:52 60.32510 24.93717 180 ft 11 kts 77°
2026-04-23 17:52 60.32598 24.94049 182 ft 19 kts 48°
2026-04-23 17:52 60.32690 24.94251 183 ft 20 kts 47°
2026-04-23 17:53 60.32886 24.94682 186 ft 22 kts 47°
2026-04-23 17:53 60.32994 24.94917 185 ft 24 kts 47°
2026-04-23 17:53 60.33106 24.95162 179 ft 23 kts 47°
2026-04-23 17:54 60.33194 24.95372 172 ft 19 kts 62°
2026-04-23 17:54 60.33150 24.95623 162 ft 22 kts 136°
2026-04-23 17:54 60.32882 24.95987 154 ft 23 kts 149°
2026-04-23 17:55 60.32617 24.96298 165 ft 21 kts 150°
2026-04-23 17:55 60.32560 24.96364 166 ft 0 kts 149°
2026-04-23 17:56 60.32539 24.96390 166 ft 11 kts 149°
2026-04-23 17:56 60.32336 24.96626 165 ft 7 kts 149°
2026-04-23 17:56 60.32330 24.96632 165 ft 0 kts 148°
2026-04-23 17:57 60.32301 24.96668 166 ft 10 kts 149°
2026-04-23 17:57 60.32095 24.96906 170 ft 20 kts 150°
2026-04-23 17:58 60.31977 24.97035 172 ft 19 kts 153°
2026-04-23 17:58 60.31871 24.97143 173 ft 16 kts 152°
2026-04-23 17:58 60.31801 24.97214 174 ft 8 kts 163°
2026-04-23 17:58 60.31760 24.97160 174 ft 8 kts 246°
2026-04-23 17:59 60.31750 24.97121 174 ft 0 kts 239°